Tracking 25734 objects as of 26-May-2022
HD Live streaming from Space Station
objects crossing your sky now

SL-16 DEB

Track SL-16 DEB now!
10-day predictions


NORAD ID: 39873
Int'l Code: 1993-016AX
Perigee: 740.7 km
Apogee: 909.8 km
Inclination: 70.4 °
Period: 101.3 minutes
Semi major axis: 7196 km
RCS: 0.0103 m2 (small)
Launch date: March 26, 1993
Source: Commonwealth of Independent States (former USSR) (CIS)
Launch site: TYURATAM MISSILE AND SPACE COMPLEX (TTMTR)

Note: This is SATELLITE DEBRIS
aabbcc
Your satellite tracking list
Your tracking list is empty




NASA's NSSDC Master Catalog

Two Line Element Set (TLE):
1 39873U 93016AX  22143.94987526  .00006970  00000-0  29496-2 0  9995
2 39873  70.4019 244.1036 0117483 162.7692 197.7473 14.22140837412726
Source of the keplerian elements: AFSPC